Location: Sternwarte ZA, Rosenfeld-Brittheim
(48.2889°N, 8.6789°E)
Time: 05:23:32
(UTC+01:00)

ISS - Pass Details

Date: 29 November 2020
Orbit: 418 x 421 km, 51.6° (Epoch: 26 November)

Event Time Altitude Azimuth Distance (km) Brightness Sun altitude
Rises 17:23:10 0° 264° (W) 2,361 1.7 -8.0°
Reaches altitude 10° 17:25:17 10° 269° (W) 1,498 0.3 -8.3°
Maximum altitude 17:28:36 54° 348° (NNW) 514 -3.4 -8.9°
Enters shadow 17:31:26 13° 65° (ENE) 1,312 -1.9 -9.3°
